EHI
2 4 8 15 33 54 72 83 90 92 94 94 93 92 90 84 74 59 40 21 9 4 2 1 0 0 0 0 0 0 0 0 0 0 0 0 0 0 0 0 0 0 0
5 6 9 19 35 56 73 83 87 87 88 88 87 85 81 73 61 45 27 14 7 2 1 0 0 0 0 0 0 0 0 0 0 0 0 0 0 0 0 0 0 0 0
13 8 10 20 37 57 73 81 83 82 80 77 73 67 59 49 37 24 13 7 4 1 0 0 0 0 0 0 0 0 0 0 0 0 0 0 0 0 0 0 0 0 0
19 10 9 22 36 53 68 76 78 77 73 66 57 47 36 25 16 10 6 4 3 1 0 0 0 0 0 0 0 0 0 0 0 0 0 0 0 0 0 0 0 0 0
17 9 10 23 34 46 60 67 68 68 65 59 50 39 27 15 7 4 3 2 2 1 0 0 0 0 0 0 0 0 0 0 0 0 0 0 0 0 0 0 0 0 0
11 6 10 21 30 38 48 52 53 55 57 57 50 40 30 18 8 3 2 1 1 0 0 0 0 0 0 0 0 0 0 0 0 0 0 0 0 0 0 0 0 0 0
8 5 6 16 23 29 34 37 40 44 50 53 49 40 31 20 10 4 2 1 0 0 0 0 0 0 0 0 0 0 0 0 0 0 0 0 0 0 0 0 0 0 0
9 6 4 8 15 20 22 25 29 34 41 45 42 35 26 16 9 5 3 1 0 0 0 0 0 0 0 0 0 1 1 0 0 0 0 0 0 0 0 0 0 0 0
8 6 2 3 7 11 13 14 17 22 27 30 29 25 18 10 6 4 2 0 0 0 1 1 1 0 0 0 0 1 1 1 1 0 0 0 0 0 0 0 0 0 0
5 3 1 0 2 4 5 5 6 9 13 15 14 12 9 5 3 2 2 1 0 0 1 2 2 2 3 4 3 1 1 3 3 2 0 0 0 0 0 0 0 0 0
4 2 1 1 1 2 2 1 1 2 4 5 5 4 4 3 1 1 1 1 1 1 2 3 3 5 8 9 6 3 2 4 4 2 0 0 0 0 0 1 1 0 0
5 4 3 2 1 1 2 1 1 1 2 2 3 4 5 4 2 1 1 1 1 1 2 3 3 6 10 9 7 5 4 4 4 2 1 0 0 0 0 1 2 1 1
7 6 5 3 2 2 2 2 2 2 3 3 4 5 6 6 4 2 1 1 1 1 1 1 2 4 7 8 7 5 4 3 3 2 1 0 0 0 0 1 2 2 2
8 8 6 4 1 1 1 1 1 1 2 3 4 4 4 4 3 1 1 1 1 1 0 0 1 2 4 6 6 3 2 1 1 1 0 0 0 0 0 0 1 1 1
10 9 7 3 1 0 0 0 0 0 0 1 2 2 2 2 1 1 0 0 1 1 0 0 1 1 1 2 2 1 0 0 0 0 0 0 0 0 0 0 0 0 0
10 8 5 2 0 0 1 0 0 0 0 0 0 1 1 1 1 1 0 0 0 0 0 0 0 0 0 0 0 0 0 0 0 0 0 0 0 0 0 0 1 1 1
6 4 2 1 0 0 0 0 0 0 0 0 0 0 0 0 0 0 0 0 0 0 0 0 0 0 0 0 0 0 0 0 0 0 0 0 0 0 0 0 0 1 1
2 1 1 0 0 0 0 0 0 0 0 0 0 0 0 0 0 0 0 0 0 0 0 0 0 0 0 0 0 0 0 0 0 0 0 0 0 0 0 0 0 0 1
1 0 0 0 0 0 0 0 0 0 0 0 0 0 0 0 0 0 0 0 0 0 0 0 0 0 0 0 0 0 0 0 0 0 0 0 0 0 0 0 0 0 0
0 0 0 0 0 0 0 0 0 0 0 0 0 0 0 0 0 0 0 0 0 0 0 0 0 0 0 0 0 0 0 0 0 0 0 0 0 0 0 0 0 0 0
0 0 0 0 0 0 0 0 0 0 0 0 0 0 0 0 0 0 0 0 0 0 0 0 0 0 0 0 0 0 0 0 0 0 0 0 0 0 0 0 0 0 0
0 0 0 0 0 0 0 0 0 0 0 0 0 0 0 0 0 0 0 0 0 0 0 0 0 0 0 0 0 0 0 0 0 0 0 0 0 0 0 0 0 0 0
0 0 0 0 0 0 0 0 0 0 0 0 0 0 0 0 0 0 0 0 0 0 0 0 0 0 0 0 0 0 0 0 0 0 0 0 0 0 0 0 0 0 0
0 0 0 0 0 0 0 0 0 0 0 0 0 0 0 0 0 0 0 0 0 0 0 0 0 0 0 0 0 0 0 0 0 0 0 0 0 0 0 0 0 0 0
0 0 0 0 0 0 0 0 0 0 0 0 0 0 0 0 0 0 0 0 0 0 0 0 0 0 0 0 0 0 0 0 0 0 0 0 0 0 0 0 0 0 0
0 0 0 0 0 0 0 0 0 0 0 0 0 0 0 0 0 0 0 0 0 0 0 0 0 0 0 0 0 0 0 0 0 0 0 0 0 0 0 0 0 0 0
Wind_Speed
5 7 13 14 15 15 16 16 16 16 16 15 15 15 15 15 14 14 13 13 12 11 10 8 7 7 7 7 7 8 9 10 10 10 10 10 11 12 13 14 14 12 17
9 8 13 14 15 15 15 16 16 16 16 16 15 15 14 14 13 13 13 12 12 11 10 9 8 8 7 7 8 8 9 9 9 9 10 10 11 12 13 14 14 10 16
11 8 11 13 14 14 14 15 16 16 16 15 15 15 14 13 13 12 12 11 11 10 10 9 8 8 8 8 8 8 8 8 8 8 8 5 8 12 12 13 14 15 15
11 7 8 13 13 13 13 13 14 15 15 14 14 14 13 13 12 11 11 10 10 10 9 9 8 8 8 8 8 7 7 8 8 8 4 4 5 11 12 13 14 14 14
10 7 9 14 13 13 12 12 12 13 13 13 12 12 12 11 11 10 9 9 9 9 9 9 8 8 7 7 7 7 6 7 7 6 3 2 3 10 12 13 13 14 14
9 7 8 13 13 12 12 11 11 11 11 11 11 11 10 10 9 9 8 8 8 8 8 8 8 8 7 7 7 6 6 6 6 4 2 2 3 9 11 12 13 13 13
10 6 7 12 12 12 11 11 10 10 10 10 10 9 9 9 9 9 9 8 8 7 7 7 8 8 8 7 7 6 6 5 4 3 3 3 4 8 11 12 12 13 13
10 6 6 11 11 10 10 10 10 10 10 9 9 9 9 9 9 9 9 9 8 8 8 7 8 9 9 8 7 7 6 6 4 3 4 4 6 8 11 11 11 13 13
8 6 4 4 6 9 9 9 9 9 9 9 9 9 9 9 9 8 8 8 9 9 9 9 9 9 9 9 8 8 7 7 2 2 3 4 7 10 12 13 13 13 13
6 5 4 3 3 2 3 7 8 8 8 8 9 9 9 9 9 9 8 8 9 9 10 10 10 10 10 9 9 9 8 6 3 3 2 4 9 12 14 15 15 14 14
5 3 3 3 2 1 1 4 5 6 7 7 7 9 8 4 3 4 6 9 10 11 11 11 11 11 10 10 11 11 8 3 4 3 3 5 9 12 15 16 16 16 16
4 2 2 2 1 1 2 1 1 1 2 3 2 3 2 2 3 5 6 10 11 11 11 12 12 11 8 4 7 9 3 5 4 4 4 9 10 11 14 16 17 18 18
3 2 2 1 1 0 1 1 1 1 2 3 3 4 3 2 2 3 2 4 5 7 5 6 7 4 4 4 4 4 4 4 3 4 5 10 10 11 12 15 17 19 19
3 3 4 3 3 2 1 1 2 2 2 2 3 4 3 2 2 2 2 2 2 2 3 3 3 4 5 6 6 6 7 5 4 4 5 11 11 12 12 14 17 19 19
6 5 4 4 4 3 2 1 1 2 2 3 2 2 3 3 3 3 2 2 2 2 3 3 4 5 5 6 6 7 8 7 7 6 4 11 12 12 13 14 16 20 20
6 5 5 5 4 4 2 2 2 2 2 3 3 4 3 2 2 2 2 2 2 2 3 3 4 4 4 4 6 7 7 7 7 7 6 8 13 13 13 13 14 18 20
5 5 4 4 4 4 4 3 3 3 3 3 3 4 4 3 2 2 1 2 2 2 2 2 3 3 4 5 6 7 6 8 8 8 7 6 7 12 15 14 14 15 18
5 4 3 4 4 3 3 3 2 3 3 3 3 4 5 4 3 2 2 2 2 2 1 2 2 3 4 5 5 5 6 6 9 9 8 7 6 7 11 16 14 14 16
5 4 3 3 3 3 3 3 3 3 4 3 3 3 4 5 4 2 2 2 2 1 1 2 2 2 4 5 5 6 6 7 8 9 9 10 9 8 8 11 15 15 17
4 3 3 2 2 2 2 2 2 3 3 3 3 4 5 4 5 3 2 3 2 1 2 2 3 3 4 5 5 6 5 7 6 8 9 9 9 10 10 9 8 11 17
4 4 3 2 1 1 1 2 2 2 2 2 3 4 5 5 5 3 3 3 2 2 2 3 2 3 3 2 3 4 5 7 8 7 7 7 9 10 9 9 8 7 7
5 5 4 3 2 1 1 1 1 0 1 2 3 4 5 5 5 4 3 3 3 2 3 2 1 2 2 2 2 2 3 4 3 5 5 7 8 6 8 10 10 10 8
6 6 5 5 3 2 1 1 2 2 3 3 3 3 4 5 5 4 4 3 3 2 2 2 2 2 2 2 2 2 2 3 4 2 2 4 5 5 7 7 10 11 11
7 5 5 4 4 2 2 1 1 1 2 3 2 3 5 5 5 4 4 3 3 2 2 3 1 1 2 2 2 2 3 3 2 4 3 2 3 5 6 6 8 9 10
6 5 5 4 4 2 2 2 1 2 3 2 3 4 4 4 4 4 3 3 3 2 2 2 2 1 1 2 1 1 2 2 3 3 4 4 3 3 4 6 6 7 9
4 4 4 4 4 2 2 2 3 4 4 4 4 4 4 3 3 4 4 3 3 2 3 2 2 2 1 2 2 2 1 1 1 2 3 4 4 4 4 4 5 6 7
Wind_Direction
147 150 149 143 137 134 130 126 122 120 118 117 118 122 126 132 138 144 150 154 156 157 155 149 140 127 120 121 124 125 125 124 126 128 127 123 122 120 118 119 117 118 122
141 148 149 145 139 136 133 130 128 127 126 126 126 128 131 136 141 147 153 157 161 162 160 156 149 139 132 129 128 129 131 133 137 137 132 128 127 126 124 123 121 126 125
138 144 147 145 141 138 135 133 132 132 133 134 135 137 140 144 148 153 158 162 165 166 165 163 157 149 141 138 138 139 141 143 144 135 119 113 128 130 129 129 129 129 128
136 135 144 146 144 142 140 138 137 138 139 140 142 144 147 150 154 159 163 167 169 170 170 169 165 158 150 147 148 149 151 150 144 122 95 108 136 139 138 136 135 134 133
128 128 150 149 149 147 146 145 144 144 145 147 148 150 153 156 160 164 169 173 176 176 177 177 172 166 160 158 158 159 161 156 145 123 103 82 119 148 147 144 143 141 140
123 128 151 151 152 152 152 153 153 152 153 154 155 157 161 164 169 173 178 184 188 190 191 188 182 176 171 169 170 173 178 175 146 123 136 122 140 161 157 155 153 149 149
128 128 147 151 154 156 158 160 161 161 162 163 165 168 173 178 184 187 190 195 201 205 205 203 195 188 184 181 184 187 197 198 150 141 167 175 183 180 170 167 164 160 158
131 124 137 151 155 159 163 166 168 171 173 175 179 183 189 194 199 201 203 206 211 218 219 219 208 198 194 191 191 195 205 217 193 167 173 183 197 198 185 179 174 171 169
123 116 115 137 155 163 170 175 178 180 183 187 191 196 202 209 213 214 217 220 224 228 229 227 221 212 204 200 199 201 208 220 182 161 187 186 205 208 198 191 186 182 179
115 113 114 115 121 144 174 188 191 195 197 200 205 210 216 221 226 228 227 232 237 238 238 236 228 221 215 210 209 211 214 219 195 192 193 203 213 216 211 201 196 193 189
131 119 115 115 113 128 190 214 208 215 217 218 222 227 227 231 241 248 247 244 245 246 246 245 239 231 221 218 219 220 220 201 187 194 202 222 225 224 220 210 202 199 197
151 142 102 114 125 199 233 248 292 290 273 253 247 252 256 238 235 243 251 254 255 255 253 250 246 239 229 218 227 229 222 212 204 202 212 225 231 235 229 219 208 203 201
136 115 84 59 46 46 339 346 328 321 305 279 262 251 252 250 249 254 254 264 267 268 263 258 251 234 218 212 216 220 229 226 220 214 217 225 230 237 239 227 216 210 204
105 79 66 57 46 23 39 349 337 320 301 286 275 266 250 250 249 247 247 253 253 258 256 250 240 232 224 219 219 221 223 222 225 223 222 231 233 236 242 237 226 218 211
85 73 61 58 69 54 48 42 28 0 336 324 322 302 261 245 246 239 245 246 249 252 251 248 244 241 237 231 225 225 227 225 225 223 226 233 236 237 242 243 233 225 218
90 82 74 74 81 86 84 74 55 36 17 12 0 343 327 287 266 254 246 247 251 248 248 249 250 247 245 241 240 234 233 230 229 225 224 234 239 239 239 243 237 227 222
117 115 113 115 105 104 96 83 74 57 45 32 13 359 353 338 308 283 266 263 262 256 254 257 260 256 256 249 247 245 242 240 236 232 229 224 230 238 238 237 235 228 223
144 141 147 125 116 113 106 94 76 61 54 38 22 11 5 360 352 334 306 294 295 283 265 264 260 261 257 252 252 251 246 243 241 237 232 226 220 229 237 235 232 227 225
169 164 167 151 140 122 101 82 67 54 47 34 27 19 9 6 4 359 330 316 319 306 284 275 264 249 262 260 257 253 245 242 242 242 237 231 226 224 227 234 233 227 225
189 186 181 171 153 107 74 59 43 37 28 22 19 12 9 3 5 9 354 341 340 323 307 294 278 260 256 262 270 267 252 245 240 237 238 234 229 228 225 224 226 229 226
202 203 204 192 196 132 67 55 38 2 344 350 353 360 1 360 2 13 5 352 344 306 288 293 282 280 271 252 263 280 270 249 241 238 233 233 233 231 225 221 218 219 223
211 213 213 211 208 184 133 120 128 343 314 307 320 340 354 357 356 8 7 349 335 302 295 293 271 284 281 241 230 273 307 312 273 243 233 232 235 232 229 223 218 216 218
220 216 213 212 211 195 138 92 47 20 355 343 338 335 335 339 344 352 355 352 344 322 288 283 260 245 276 283 230 227 250 276 311 303 249 241 240 233 232 225 222 219 216
224 215 211 210 209 202 155 149 177 257 280 276 288 298 311 323 332 338 347 357 357 350 318 296 274 243 256 285 289 245 243 250 276 308 310 273 258 248 241 233 228 222 216
212 203 202 200 209 205 187 193 215 252 255 280 291 299 307 314 320 327 334 349 352 346 334 321 314 271 226 251 273 285 282 262 241 259 289 309 309 271 250 236 230 223 216
200 191 185 190 213 213 215 221 224 251 271 289 295 298 302 306 310 318 324 333 329 326 326 324 309 286 252 244 251 250 243 262 273 259 277 297 300 291 274 247 230 223 215